Powrót do katalogu

COSMOS 530

AktywnyMilitariaLEO
NORAD 6265·PAYLOAD·🇷🇺 Russia

Wystrzelony Nov 1, 1972 z Plesetsk Cosmodrome

Loading…

Następne Przeloty (najbliższe 24 godziny)

TLE

ŚwieżeSource: Space-Track

Epoka: Sep 14, 2026, 18:36 UTC

1 06265U 72087C   26257.77534222 -.00000001  00000-0  82787-4 0  9995
2 06265  74.0363 177.0554 0087533 242.2155 143.9554 12.65678675488925

Śledź COSMOS 530 w czasie rzeczywistym z AllMySat

Download on the App Store